TimeEST,TemperatureF,Dew PointF,Humidity,Sea Level PressureIn,VisibilityMPH,Wind Direction,Wind SpeedMPH,Gust SpeedMPH,PrecipitationIn,Events,Conditions,WindDirDegrees,DateUTC
12:15 AM,42.8,37.4,81,30.36,10.0,North,4.6,-,N/A,,Clear,10,2012-11-17 05:15:00
12:35 AM,42.8,37.4,81,30.36,10.0,North,5.8,-,N/A,,Clear,10,2012-11-17 05:35:00
12:55 AM,42.8,37.4,81,30.35,10.0,North,5.8,-,N/A,,Clear,10,2012-11-17 05:55:00
1:15 AM,42.8,37.4,81,30.36,10.0,NNE,4.6,-,N/A,,Clear,20,2012-11-17 06:15:00
1:35 AM,42.8,37.4,81,30.36,10.0,NNE,5.8,-,N/A,,Clear,30,2012-11-17 06:35:00
1:55 AM,42.8,37.4,81,30.36,10.0,NNE,5.8,-,N/A,,Clear,20,2012-11-17 06:55:00
2:15 AM,41.0,37.4,87,30.36,10.0,NNE,6.9,-,N/A,,Clear,20,2012-11-17 07:15:00
2:35 AM,41.0,37.4,87,30.35,10.0,NNE,5.8,-,N/A,,Clear,20,2012-11-17 07:35:00
2:55 AM,41.0,37.4,87,30.35,10.0,NNE,6.9,-,N/A,,Clear,20,2012-11-17 07:55:00
3:15 AM,41.0,37.4,87,30.35,10.0,North,4.6,-,N/A,,Clear,10,2012-11-17 08:15:00
3:35 AM,41.0,37.4,87,30.35,10.0,NNE,5.8,-,N/A,,Clear,20,2012-11-17 08:35:00
3:55 AM,41.0,35.6,81,30.36,10.0,NNE,8.1,-,N/A,,Clear,20,2012-11-17 08:55:00
4:15 AM,41.0,35.6,81,30.35,10.0,North,6.9,-,N/A,,Clear,10,2012-11-17 09:15:00
4:35 AM,41.0,35.6,81,30.35,10.0,North,8.1,-,N/A,,Clear,10,2012-11-17 09:35:00
4:55 AM,41.0,35.6,81,30.35,10.0,North,6.9,-,N/A,,Clear,10,2012-11-17 09:55:00
5:15 AM,41.0,35.6,81,30.35,10.0,North,5.8,-,N/A,,Clear,360,2012-11-17 10:15:00
5:35 AM,39.2,35.6,87,30.35,10.0,North,6.9,-,N/A,,Clear,10,2012-11-17 10:35:00
5:55 AM,39.2,35.6,87,30.36,10.0,NNE,5.8,-,N/A,,Clear,20,2012-11-17 10:55:00
6:15 AM,39.2,35.6,87,30.36,10.0,North,6.9,-,N/A,,Clear,10,2012-11-17 11:15:00
6:35 AM,39.2,35.6,87,30.37,10.0,NNE,4.6,-,N/A,,Clear,20,2012-11-17 11:35:00
6:55 AM,37.4,35.6,93,30.38,10.0,North,4.6,-,N/A,,Clear,10,2012-11-17 11:55:00
7:15 AM,37.4,35.6,93,30.38,10.0,North,5.8,-,N/A,,Clear,10,2012-11-17 12:15:00
7:35 AM,37.4,35.6,93,30.39,10.0,North,8.1,-,N/A,,Clear,10,2012-11-17 12:35:00
7:55 AM,39.2,35.6,87,30.39,10.0,North,8.1,-,N/A,,Clear,10,2012-11-17 12:55:00
8:15 AM,41.0,35.6,81,30.39,10.0,NNE,8.1,-,N/A,,Clear,20,2012-11-17 13:15:00
8:35 AM,42.8,35.6,76,30.40,10.0,NNE,8.1,-,N/A,,Clear,20,2012-11-17 13:35:00
8:55 AM,42.8,35.6,76,30.41,10.0,NNE,9.2,-,N/A,,Scattered Clouds,20,2012-11-17 13:55:00
9:15 AM,44.6,35.6,71,30.41,10.0,NNE,11.5,17.3,N/A,,Mostly Cloudy,30,2012-11-17 14:15:00
9:35 AM,46.4,37.4,71,30.41,10.0,NE,9.2,18.4,N/A,,Overcast,40,2012-11-17 14:35:00
9:55 AM,46.4,37.4,71,30.41,10.0,NNE,9.2,-,N/A,,Overcast,20,2012-11-17 14:55:00
10:15 AM,48.2,39.2,71,30.41,10.0,North,9.2,-,N/A,,Overcast,10,2012-11-17 15:15:00
10:35 AM,48.2,41.0,76,30.40,10.0,North,12.7,17.3,N/A,,Overcast,360,2012-11-17 15:35:00
10:55 AM,50.0,41.0,71,30.40,10.0,North,11.5,16.1,N/A,,Overcast,350,2012-11-17 15:55:00
11:15 AM,51.8,41.0,67,30.39,10.0,North,10.4,16.1,N/A,,Mostly Cloudy,10,2012-11-17 16:15:00
11:35 AM,51.8,41.0,67,30.38,10.0,North,11.5,19.6,N/A,,Scattered Clouds,360,2012-11-17 16:35:00
12:55 PM,53.6,42.8,67,30.37,10.0,NNE,10.4,-,N/A,,Mostly Cloudy,30,2012-11-17 17:55:00
1:15 PM,55.4,42.8,63,30.36,10.0,NNE,11.5,-,N/A,,Scattered Clouds,20,2012-11-17 18:15:00
2:15 PM,55.4,42.8,63,30.35,10.0,North,13.8,-,N/A,,Unknown,10,2012-11-17 19:15:00
2:35 PM,55.4,42.8,63,30.36,10.0,NNE,12.7,-,N/A,,Scattered Clouds,30,2012-11-17 19:35:00
2:55 PM,55.4,42.8,63,30.36,10.0,NNE,11.5,-,N/A,,Mostly Cloudy,20,2012-11-17 19:55:00
3:15 PM,55.4,42.8,63,30.35,10.0,NNE,11.5,-,N/A,,Overcast,20,2012-11-17 20:15:00
3:35 PM,55.4,42.8,63,30.35,10.0,North,9.2,-,N/A,,Mostly Cloudy,10,2012-11-17 20:35:00
3:55 PM,55.4,44.6,67,30.36,10.0,NNE,10.4,-,N/A,,Scattered Clouds,20,2012-11-17 20:55:00
4:15 PM,53.6,44.6,72,30.35,10.0,North,9.2,-,N/A,,Mostly Cloudy,10,2012-11-17 21:15:00
4:55 PM,53.6,44.6,72,30.36,10.0,NNE,12.7,16.1,N/A,,Overcast,30,2012-11-17 21:55:00
5:15 PM,53.6,44.6,72,30.36,10.0,NNE,10.4,-,N/A,,Overcast,20,2012-11-17 22:15:00
5:35 PM,53.6,44.6,72,30.37,10.0,NNE,6.9,-,N/A,,Overcast,30,2012-11-17 22:35:00
5:55 PM,53.6,44.6,72,30.36,10.0,NNE,12.7,-,N/A,,Overcast,20,2012-11-17 22:55:00
6:15 PM,53.6,44.6,72,30.36,10.0,North,10.4,-,N/A,,Overcast,10,2012-11-17 23:15:00
6:35 PM,53.6,44.6,72,30.37,10.0,NNE,9.2,18.4,N/A,,Overcast,30,2012-11-17 23:35:00
6:55 PM,53.6,42.8,67,30.37,10.0,NNE,16.1,20.7,N/A,,Overcast,30,2012-11-17 23:55:00
7:15 PM,53.6,42.8,67,30.38,10.0,NNE,13.8,20.7,N/A,,Overcast,20,2012-11-18 00:15:00
7:35 PM,53.6,42.8,67,30.38,10.0,NNE,18.4,23.0,N/A,,Overcast,20,2012-11-18 00:35:00
7:55 PM,53.6,42.8,67,30.37,10.0,NNE,18.4,23.0,N/A,,Overcast,20,2012-11-18 00:55:00
8:15 PM,53.6,42.8,67,30.36,10.0,NNE,15.0,25.3,N/A,,Overcast,30,2012-11-18 01:15:00
8:35 PM,51.8,42.8,71,30.36,10.0,NNE,11.5,19.6,N/A,,Mostly Cloudy,20,2012-11-18 01:35:00
8:55 PM,51.8,42.8,71,30.36,10.0,NNE,10.4,16.1,N/A,,Scattered Clouds,20,2012-11-18 01:55:00
9:15 PM,51.8,42.8,71,30.36,10.0,NNE,12.7,16.1,N/A,,Clear,20,2012-11-18 02:15:00
9:35 PM,51.8,42.8,71,30.37,10.0,NNE,11.5,-,N/A,,Mostly Cloudy,30,2012-11-18 02:35:00
9:55 PM,51.8,42.8,71,30.37,10.0,NNE,15.0,20.7,N/A,,Overcast,20,2012-11-18 02:55:00
10:15 PM,51.8,42.8,71,30.36,10.0,NNE,15.0,23.0,N/A,,Overcast,20,2012-11-18 03:15:00
10:35 PM,51.8,42.8,71,30.37,10.0,NNE,13.8,19.6,N/A,,Scattered Clouds,30,2012-11-18 03:35:00
10:55 PM,51.8,42.8,71,30.37,10.0,NNE,12.7,17.3,N/A,,Mostly Cloudy,20,2012-11-18 03:55:00
11:15 PM,51.8,42.8,71,30.37,10.0,NNE,12.7,17.3,N/A,,Overcast,30,2012-11-18 04:15:00
11:35 PM,51.8,42.8,71,30.36,10.0,NNE,11.5,20.7,N/A,,Overcast,20,2012-11-18 04:35:00
11:55 PM,51.8,42.8,71,30.37,10.0,NNE,10.4,23.0,N/A,,Overcast,20,2012-11-18 04:55:00